Temperature
18 19 19 19 19 20 19 19 18 18 17 17 17 17 18 18 18 19 19 19 19 20 19 19 19 19 18 18 18 17 17 17 17 17 17 18 18 18 18 17 17 17 17
17 17 18 18 19 19 18 19 18 17 17 17 17 17 18 18 19 19 19 19 19 19 19 19 19 19 19 18 18 17 17 17 16 16 16 16 17 17 17 17 17 17 17
16 16 17 17 18 18 18 18 17 17 17 17 17 17 18 18 18 19 18 19 19 19 19 19 19 19 19 18 18 18 17 17 16 16 15 15 14 15 17 17 17 17 17
16 16 16 17 17 17 17 17 17 17 17 17 17 17 18 18 18 18 18 18 18 18 18 18 18 18 18 18 18 18 17 17 17 16 15 15 14 14 14 16 17 17 17
16 16 16 16 16 16 16 16 16 16 16 16 17 17 17 17 17 17 17 17 17 17 17 17 17 17 17 17 17 17 17 17 16 16 16 15 15 14 14 14 16 16 16
16 16 16 16 16 16 16 16 16 16 16 16 16 16 16 16 16 16 17 16 16 16 16 16 16 17 17 17 17 17 17 16 16 16 16 15 15 15 14 13 14 15 16
16 16 16 16 16 16 16 16 16 15 15 15 15 15 15 15 15 15 15 15 15 15 16 16 16 16 16 16 16 16 16 16 16 16 16 15 15 14 14 13 13 13 14
16 16 16 16 16 16 15 15 15 15 15 15 14 14 14 14 14 14 14 14 14 14 14 14 14 15 15 15 15 15 15 15 15 15 15 15 15 14 14 13 13 13 13
16 16 16 16 16 16 15 15 15 14 14 14 14 13 13 13 13 13 13 12 13 13 13 13 13 13 14 14 14 14 15 15 15 15 15 15 15 14 14 14 13 13 12
16 16 16 16 16 16 15 14 14 14 14 13 13 13 12 12 12 12 12 12 12 12 12 12 12 13 13 13 13 13 14 14 14 14 14 14 15 14 14 14 13 13 13
17 17 17 16 16 15 15 14 14 14 13 13 13 13 12 12 12 11 11 11 11 11 11 11 11 11 12 12 12 13 13 13 13 14 14 14 14 14 14 14 14 13 13
17 16 16 16 15 15 14 14 14 13 13 13 12 12 12 12 11 11 11 11 11 10 10 10 10 11 11 11 11 12 12 12 13 13 13 13 14 14 14 14 14 14 13
16 15 15 15 14 14 14 13 13 13 13 12 12 12 12 11 11 11 11 11 10 10 10 10 10 10 10 10 11 11 11 12 12 12 12 13 13 13 14 14 14 14 13
15 14 14 14 14 13 13 13 13 13 12 12 12 12 12 11 11 11 11 11 10 10 10 10 10 10 10 10 10 10 10 11 11 12 12 12 13 13 13 13 13 13 13
14 14 14 13 13 13 13 13 12 12 12 12 12 12 11 11 11 11 10 10 10 10 10 10 10 9 9 9 10 10 10 10 11 11 12 12 13 13 13 13 13 13 13
13 13 13 13 13 13 12 12 12 12 12 12 11 11 11 11 11 10 10 10 10 10 10 10 9 9 9 9 9 9 10 10 10 11 11 12 12 12 12 13 13 12 12
13 13 13 13 13 12 12 12 12 12 11 11 11 11 11 10 10 10 10 10 10 9 9 9 9 9 9 9 9 9 9 9 10 10 11 11 12 12 12 12 12 12 12
13 13 13 13 12 12 12 11 11 11 11 11 10 10 10 10 10 9 9 9 9 9 9 9 9 9 9 9 9 9 9 9 10 10 10 11 11 11 12 12 11 11 11
13 13 12 12 11 11 10 10 10 10 9 9 9 9 9 9 9 9 9 9 9 9 9 8 8 8 8 9 9 9 9 9 9 9 10 10 11 11 11 11 11 11 11
12 11 11 10 10 9 9 8 8 8 8 7 7 7 7 7 7 8 8 8 8 8 8 8 8 8 8 8 8 8 8 9 9 9 9 10 10 11 11 11 11 11 11
10 10 9 9 8 8 7 7 6 6 6 6 6 6 6 6 6 6 7 7 7 7 7 8 8 8 8 8 8 8 8 8 8 9 9 9 10 10 10 11 11 11 11
9 9 8 7 7 6 6 5 5 5 5 5 5 5 5 5 5 5 6 6 6 6 7 7 7 8 8 8 8 8 8 8 8 8 9 9 9 10 10 10 10 11 10
8 7 7 6 6 5 5 5 5 5 5 5 5 5 5 5 5 5 5 5 6 6 6 7 7 7 8 8 8 8 8 8 8 8 8 8 9 9 10 10 10 10 10
7 7 6 5 5 5 5 5 5 5 5 5 5 5 4 5 5 5 5 5 5 6 6 6 7 7 7 8 8 8 8 8 8 8 8 8 8 9 9 10 10 10 10
7 6 5 5 5 5 5 5 5 5 5 5 5 5 5 4 4 5 5 5 5 6 6 6 6 7 7 8 8 8 8 8 7 7 7 8 8 8 9 9 9 9 10
6 5 5 5 5 5 5 5 5 5 5 5 5 5 5 5 5 5 5 5 5 6 6 6 6 7 7 7 8 8 8 7 7 7 7 7 8 8 9 9 9 9 9
Wind_Speed
9 9 9 8 7 7 5 2 3 2 2 1 2 2 2 2 3 4 5 6 7 7 5 4 4 4 3 2 1 1 1 2 1 2 4 5 5 5 5 4 4 6 6
9 9 7 7 7 5 3 3 2 2 2 3 3 3 2 2 3 3 4 5 6 6 5 6 5 4 3 2 1 1 1 1 1 1 1 4 5 4 3 2 3 4 4
8 7 7 7 7 7 5 4 2 1 1 3 2 2 1 1 1 2 3 4 5 6 5 6 6 5 5 4 3 3 3 2 1 1 2 0 3 4 4 3 2 3 4
7 6 7 8 8 7 6 6 4 3 2 2 1 0 1 1 3 2 3 4 4 5 6 6 7 6 5 5 4 4 4 3 2 2 2 3 4 2 4 4 3 4 5
5 5 6 7 7 7 7 6 7 7 6 5 4 3 3 2 2 2 2 3 3 4 5 6 7 7 6 6 6 5 4 4 4 3 3 3 3 5 4 6 5 4 3
4 4 5 6 6 6 6 6 6 6 6 7 7 7 6 6 5 5 4 3 3 3 3 4 5 6 6 7 7 7 6 5 5 4 4 4 4 4 4 6 6 6 4
3 3 4 5 5 5 5 5 5 4 5 6 6 6 6 6 6 5 5 5 4 4 4 3 3 4 5 7 7 7 7 7 6 6 5 5 6 5 5 6 6 5 4
3 3 4 5 5 5 5 4 3 2 2 3 4 4 4 3 3 5 5 5 4 5 5 5 5 4 4 5 6 6 7 6 7 8 7 6 6 5 5 5 5 6 4
4 4 4 5 5 6 5 5 4 3 2 1 1 2 3 3 4 5 4 4 4 5 6 7 6 6 6 5 4 5 7 7 7 8 8 6 6 5 6 5 5 5 5
3 4 4 5 6 7 6 7 6 6 5 5 4 4 4 5 5 5 6 6 6 5 6 7 7 7 7 6 5 5 6 7 7 6 7 7 6 5 5 5 5 6 6
3 4 5 5 5 6 6 7 7 7 7 8 7 7 7 7 6 6 7 7 6 6 7 7 7 7 8 7 6 7 7 7 7 7 8 8 7 5 5 4 4 5 6
4 5 5 4 3 4 5 7 8 8 9 9 9 9 9 8 8 8 9 8 8 8 7 7 7 8 8 7 7 8 8 7 7 8 8 8 7 6 5 4 5 5 5
7 6 5 5 5 6 7 8 9 10 10 9 9 10 10 10 10 11 10 9 9 9 8 8 8 8 8 8 8 8 8 8 8 7 8 9 8 7 5 5 4 4 4
5 5 5 6 7 7 8 9 10 10 10 10 10 11 12 12 12 11 11 11 10 10 10 9 9 9 8 8 8 7 7 8 7 7 8 9 9 8 6 5 5 4 4
7 8 8 8 8 9 9 9 10 10 10 10 10 12 12 11 11 11 11 11 11 11 10 9 9 8 7 8 7 6 7 8 7 7 8 8 9 10 7 5 4 4 4
10 10 10 10 10 11 11 11 11 11 10 10 11 11 10 10 11 11 11 11 10 10 9 9 9 8 8 10 11 8 7 8 8 7 7 8 8 9 9 8 6 7 7
12 12 11 11 12 12 12 12 12 11 10 10 11 10 10 10 10 11 10 10 10 9 9 9 9 9 10 13 13 12 7 8 8 8 8 8 8 8 6 6 5 4 5
13 13 12 12 12 12 11 11 11 10 10 10 10 9 9 9 9 8 9 9 8 8 8 9 9 9 10 13 13 12 7 7 8 8 9 9 9 9 8 7 5 4 4
14 14 13 13 11 11 11 10 9 9 9 9 9 9 9 9 8 8 9 8 7 8 8 7 9 9 10 12 13 11 5 6 7 8 9 10 11 13 13 10 8 6 5
12 11 10 10 10 10 9 9 10 10 10 11 10 9 9 9 10 10 9 8 7 8 9 9 9 10 10 12 13 11 5 6 5 5 7 11 12 15 15 11 10 10 7
11 10 10 10 10 11 11 12 13 13 13 12 12 11 11 11 10 10 9 9 8 8 8 9 8 9 10 11 13 12 6 6 5 4 4 6 13 16 16 12 10 12 11
10 10 10 11 11 12 12 13 14 14 13 13 13 13 12 12 12 9 8 8 8 8 8 8 7 6 7 9 10 12 11 8 5 5 4 5 13 15 16 11 13 16 13
11 11 12 14 14 13 12 15 16 15 15 14 14 13 13 11 10 10 9 8 7 7 7 6 6 6 5 6 9 10 10 11 6 3 5 7 12 13 12 14 17 13 9
11 11 14 16 16 15 15 15 16 15 15 15 14 12 11 11 10 8 8 8 7 7 7 7 6 6 5 5 4 4 5 6 5 4 5 8 11 9 11 13 11 8 8
11 12 15 16 18 17 17 16 15 14 14 13 13 11 10 9 8 8 8 8 7 8 8 7 6 6 6 7 9 7 5 5 5 6 4 4 6 7 7 8 8 8 8
13 15 16 17 18 18 18 17 15 13 13 12 10 8 7 7 6 6 7 9 10 11 13 11 8 6 7 10 11 10 9 10 12 8 6 6 7 8 9 9 8 7 8
Wind_Direction
75 74 75 83 86 81 86 104 141 162 200 288 309 266 236 221 203 203 186 172 167 159 153 150 147 137 137 157 233 218 284 289 309 344 319 303 287 276 265 263 270 270 263
67 65 65 76 85 89 86 90 143 166 215 225 231 240 213 226 221 218 211 187 173 167 169 166 167 164 155 149 179 173 201 279 7 107 336 334 333 336 310 302 289 297 304
67 66 69 72 74 65 55 56 42 47 254 248 256 311 352 340 317 254 228 210 187 181 175 180 178 182 173 181 201 197 181 216 271 189 175 225 286 308 303 292 297 320 315
56 65 70 69 70 73 67 54 56 54 7 331 334 39 237 246 261 257 252 239 214 197 194 192 194 193 189 191 204 191 187 183 230 266 216 203 201 254 304 304 292 303 308
59 64 69 70 69 67 64 56 47 34 16 11 8 13 2 321 308 314 292 266 257 238 226 214 204 202 200 200 201 199 208 202 205 214 227 235 226 216 239 288 304 311 286
83 89 88 86 81 76 69 61 53 38 25 25 20 18 10 357 357 352 340 312 294 281 270 238 222 213 207 207 206 206 213 218 221 223 220 219 227 222 227 263 290 297 291
145 132 117 110 110 104 96 83 68 42 22 27 24 14 8 1 359 348 337 330 319 312 304 296 255 230 219 215 209 206 215 217 221 227 231 230 231 228 232 255 276 282 286
176 170 164 151 147 147 143 132 120 100 30 25 10 5 1 354 340 334 332 330 322 313 320 319 305 282 256 238 220 218 221 219 222 232 233 237 238 231 230 236 258 285 280
170 175 180 173 174 174 172 168 165 177 209 228 266 292 313 318 314 315 318 314 315 318 334 329 319 308 295 279 255 238 235 227 226 232 236 238 240 235 236 232 226 246 275
191 194 198 197 190 183 181 179 182 196 215 224 232 238 251 261 272 286 295 297 300 308 313 316 316 311 304 295 282 267 253 239 236 233 233 239 241 238 236 234 230 226 239
239 245 245 232 213 196 192 197 204 212 223 228 231 236 244 249 254 260 266 271 277 286 291 294 300 302 300 294 286 273 263 251 248 241 232 235 234 234 237 237 237 233 227
291 288 290 287 269 242 233 231 231 231 233 232 232 237 241 242 245 250 255 256 262 267 270 276 282 286 291 292 287 283 273 255 250 245 237 237 235 233 235 236 239 235 221
326 332 335 321 292 268 257 253 248 244 244 239 236 241 244 243 244 247 250 250 251 257 261 263 266 270 273 277 276 275 272 257 246 241 237 234 226 230 231 232 235 232 227
340 337 316 294 280 270 263 259 257 251 249 242 237 240 242 241 242 246 248 249 247 249 253 253 252 256 262 267 270 273 275 263 250 244 238 226 218 220 223 228 226 218 210
326 312 299 285 278 274 270 264 261 257 252 246 241 240 241 240 240 242 244 245 244 246 244 245 249 250 255 259 260 264 274 266 254 249 236 222 215 211 211 211 208 202 201
304 298 293 287 281 276 273 270 267 262 254 248 246 244 240 237 236 238 239 239 240 243 241 238 239 243 253 262 267 266 269 266 250 245 234 221 211 206 204 202 198 197 192
302 297 289 280 277 275 272 271 269 265 260 254 251 248 244 241 240 241 238 234 234 235 237 238 236 237 244 253 262 267 263 261 248 240 226 215 205 190 183 178 175 182 177
297 292 286 283 281 279 279 278 277 273 269 264 258 253 248 245 243 241 239 237 232 230 231 234 235 235 244 248 255 262 258 258 252 240 225 210 193 187 174 162 150 138 136
289 289 290 294 298 300 302 304 302 299 293 285 276 269 260 251 243 238 238 236 231 233 231 230 230 231 241 245 251 255 248 252 261 251 229 207 193 185 169 157 148 133 117
298 304 312 316 316 314 315 310 302 297 290 285 280 275 268 261 253 243 236 233 229 235 237 237 231 227 232 238 242 241 227 243 259 256 228 208 193 175 166 161 154 146 138
314 320 321 317 307 303 304 302 299 294 291 289 284 280 271 265 262 253 243 237 233 232 234 237 236 229 229 235 238 230 211 222 240 246 224 206 185 172 168 162 158 151 140
319 317 314 309 305 305 305 302 298 294 293 291 289 284 276 272 274 260 250 239 230 232 234 235 240 235 231 231 234 224 215 211 217 226 203 187 173 172 166 158 146 140 132
316 316 313 313 312 309 304 301 299 297 294 289 286 282 279 271 264 257 253 247 234 229 229 224 230 236 232 229 225 214 210 207 203 202 179 169 169 166 162 149 143 138 130
317 317 318 319 316 313 307 301 300 297 293 290 287 281 276 271 262 254 247 244 234 224 221 217 220 223 218 209 199 190 187 187 183 166 146 153 161 159 147 144 140 134 134
318 319 322 319 316 315 312 308 305 302 297 292 287 282 273 266 262 253 244 237 231 219 210 210 203 199 208 210 188 176 181 177 162 146 137 148 154 149 142 136 130 128 128
322 323 322 320 318 316 314 312 309 307 302 299 294 287 277 267 258 255 261 244 237 234 224 214 197 199 193 174 170 168 163 159 153 146 148 156 158 155 151 147 137 132 138
Height
1491 1490 1491 1492 1492 1491 1492 1492 1491 1492 1492 1492 1494 1496 1498 1499 1501 1503 1505 1505 1507 1508 1507 1506 1505 1503 1502 1500 1500 1499 1498 1497 1496 1494 1492 1491 1490 1490 1490 1491 1491 1491 1491
1493 1492 1492 1492 1492 1490 1490 1489 1489 1490 1492 1494 1494 1495 1497 1498 1499 1501 1502 1503 1504 1504 1505 1504 1503 1501 1500 1498 1497 1497 1495 1494 1493 1491 1488 1486 1486 1486 1487 1487 1487 1487 1487
1497 1496 1494 1492 1491 1491 1491 1491 1491 1491 1492 1493 1494 1495 1497 1497 1497 1498 1499 1499 1500 1501 1501 1501 1500 1499 1498 1496 1495 1494 1493 1491 1490 1489 1488 1485 1483 1481 1480 1482 1482 1483 1483
1501 1499 1496 1494 1492 1492 1493 1494 1493 1493 1493 1494 1495 1496 1495 1496 1496 1496 1496 1496 1496 1497 1497 1497 1496 1495 1494 1493 1492 1491 1490 1488 1487 1486 1485 1484 1482 1480 1476 1476 1477 1478 1477
1503 1501 1499 1497 1495 1495 1495 1495 1495 1495 1495 1494 1494 1494 1494 1494 1494 1493 1492 1492 1492 1492 1492 1492 1491 1490 1490 1489 1489 1488 1487 1486 1484 1482 1482 1480 1479 1477 1476 1471 1470 1471 1472
1504 1503 1500 1499 1498 1498 1498 1498 1497 1497 1495 1494 1493 1492 1491 1491 1490 1489 1488 1487 1487 1487 1486 1485 1485 1484 1484 1484 1484 1483 1483 1482 1480 1479 1478 1476 1474 1473 1472 1469 1466 1465 1466
1503 1503 1501 1500 1499 1499 1499 1499 1498 1497 1495 1494 1492 1490 1489 1488 1486 1485 1483 1482 1481 1481 1480 1479 1478 1478 1478 1478 1478 1478 1478 1477 1476 1475 1474 1472 1470 1469 1467 1465 1463 1461 1460
1502 1502 1501 1500 1499 1498 1498 1497 1497 1496 1494 1492 1491 1489 1487 1485 1483 1481 1479 1477 1476 1475 1473 1473 1472 1472 1472 1472 1472 1472 1472 1472 1471 1470 1469 1468 1466 1464 1463 1461 1460 1457 1456
1501 1500 1500 1498 1497 1496 1495 1494 1494 1493 1491 1490 1488 1486 1484 1482 1479 1477 1475 1473 1471 1469 1468 1467 1466 1466 1465 1465 1465 1465 1465 1466 1466 1465 1464 1463 1461 1459 1458 1457 1456 1456 1453
1500 1499 1498 1496 1494 1493 1491 1490 1489 1489 1487 1485 1484 1482 1480 1477 1475 1473 1470 1468 1466 1464 1462 1461 1460 1460 1459 1458 1458 1458 1458 1459 1459 1459 1458 1457 1456 1454 1453 1452 1451 1450 1450
1498 1497 1495 1493 1490 1488 1487 1486 1485 1483 1482 1480 1478 1476 1474 1472 1470 1468 1465 1463 1460 1459 1457 1456 1454 1453 1452 1452 1451 1451 1451 1452 1452 1452 1452 1451 1451 1449 1447 1446 1445 1444 1445
1497 1494 1491 1489 1487 1485 1484 1482 1480 1478 1475 1473 1471 1469 1467 1465 1463 1461 1459 1457 1455 1454 1452 1450 1448 1447 1446 1445 1444 1444 1444 1445 1445 1445 1445 1445 1444 1443 1442 1440 1439 1439 1439
1494 1491 1488 1486 1484 1481 1479 1477 1474 1471 1468 1466 1463 1461 1459 1458 1456 1454 1453 1451 1449 1448 1446 1445 1443 1441 1440 1439 1438 1438 1437 1437 1438 1438 1438 1438 1438 1437 1436 1435 1434 1433 1433
1492 1489 1485 1482 1479 1476 1473 1470 1466 1464 1461 1458 1455 1453 1451 1450 1448 1447 1445 1444 1442 1441 1439 1438 1437 1435 1434 1433 1432 1431 1431 1430 1430 1430 1431 1431 1431 1431 1430 1429 1429 1428 1428
1488 1484 1480 1476 1473 1469 1465 1461 1458 1455 1452 1449 1446 1444 1443 1441 1440 1439 1437 1436 1435 1433 1432 1431 1430 1429 1428 1427 1426 1425 1424 1423 1423 1423 1424 1424 1425 1425 1425 1424 1424 1424 1424
1482 1478 1474 1470 1465 1461 1457 1453 1449 1446 1443 1440 1437 1435 1434 1432 1431 1430 1429 1428 1427 1426 1425 1424 1423 1422 1421 1421 1420 1419 1418 1417 1416 1416 1417 1418 1419 1419 1420 1420 1419 1420 1420
1477 1472 1467 1462 1457 1453 1448 1444 1440 1436 1433 1430 1428 1426 1424 1423 1421 1421 1420 1419 1418 1417 1417 1416 1415 1414 1414 1414 1413 1412 1411 1410 1409 1409 1410 1411 1412 1414 1415 1415 1415 1416 1416
1471 1465 1460 1454 1449 1445 1440 1435 1431 1427 1424 1421 1418 1416 1414 1412 1411 1411 1410 1410 1409 1409 1408 1408 1407 1407 1406 1406 1406 1405 1404 1403 1402 1403 1403 1405 1406 1408 1410 1411 1412 1413 1414
1465 1459 1454 1448 1442 1437 1432 1427 1422 1418 1414 1411 1408 1406 1404 1402 1401 1400 1400 1400 1400 1399 1399 1399 1399 1399 1399 1399 1399 1398 1397 1397 1396 1396 1397 1398 1400 1403 1406 1408 1410 1411 1413
1460 1453 1447 1442 1436 1430 1424 1419 1413 1408 1404 1400 1397 1394 1392 1391 1389 1389 1389 1389 1389 1389 1390 1390 1390 1391 1391 1391 1392 1392 1391 1390 1390 1390 1390 1392 1395 1398 1402 1405 1407 1409 1412
1454 1448 1441 1435 1429 1422 1416 1409 1403 1398 1393 1389 1385 1382 1380 1379 1377 1377 1377 1377 1378 1379 1380 1380 1381 1382 1383 1384 1384 1385 1385 1385 1384 1384 1385 1386 1391 1395 1399 1403 1406 1409 1412
1448 1442 1434 1427 1420 1414 1407 1400 1394 1388 1383 1378 1374 1371 1369 1367 1366 1366 1366 1367 1368 1369 1370 1372 1373 1374 1376 1377 1377 1378 1379 1379 1379 1379 1380 1382 1387 1392 1397 1401 1405 1409 1413
1443 1435 1428 1420 1413 1406 1399 1392 1385 1379 1374 1369 1365 1361 1359 1357 1356 1356 1356 1357 1358 1359 1361 1363 1365 1367 1369 1370 1371 1372 1373 1374 1375 1375 1376 1379 1384 1390 1395 1400 1405 1409 1413
1437 1429 1421 1413 1405 1398 1392 1385 1378 1371 1366 1361 1356 1353 1350 1348 1347 1347 1347 1348 1349 1351 1353 1356 1358 1360 1362 1364 1366 1367 1368 1370 1371 1372 1374 1377 1382 1388 1394 1399 1405 1409 1414
1431 1423 1415 1407 1399 1392 1384 1378 1371 1365 1359 1354 1349 1346 1343 1341 1340 1339 1340 1341 1342 1345 1347 1350 1353 1355 1357 1360 1362 1363 1365 1366 1367 1370 1372 1375 1380 1387 1393 1399 1405 1410 1415
1426 1418 1410 1402 1394 1387 1379 1373 1366 1360 1354 1349 1344 1340 1337 1335 1334 1334 1334 1335 1337 1340 1343 1346 1349 1351 1354 1357 1359 1360 1362 1363 1365 1368 1370 1374 1380 1386 1393 1399 1405 1411 1417